Location: Malanoce
(44.2500°N, 7.4667°E)
Time: 19:34:33
(UTC+00:00)

BlueWalker 3 - Pass Details

Date: 19 January 2026
Orbit: 450 x 461 km, 53.2° (Epoch: 11 February)

Event Time Altitude Azimuth Distance (km) Brightness Sun altitude
Rises 18:30:07 0° 214° (SW) 2,443 6.0 -22.6°
Reaches altitude 10° 18:32:19 10° 207° (SSW) 1,574 4.8 -23.0°
Enters shadow 18:33:58 23° 191° (S) 998 3.6 -23.3°
